Starlink 5307

operational
NORAD ID: 55658 Int'l Des: 2023-021 Owner: SPXS Country: US Constellation: starlink
LEOCIRCULAR

About Starlink 5307

Description loading...

Live Position

Loading 3D Globe...

Upcoming Passes

Altitude History

Altitude vs Time

uPlot chart will show altitude changes over time

Two-Line Element Set

1 55658U 23021AG 26102.39933975 .00000127 00000-0 18482-4 0 9993
2 55658 69.9984 99.3481 0003924 266.6966 93.3744 14.98329937173847
Epoch: Apr 12, 2026 • Age: 6 hours

Current Status

Altitude 575.4 km
Velocity 7.57 km/s
Sub-Earth Point -6.48°S, 16.02°E
Launch Date Feb 17, 2023
Age 3.1 years
Type internet

Technical Details

Classification Payload
Mass 305.00 kg
Dry Mass 290.00 kg
Total Mass 305.00 kg
Length 0.20 m
Diameter 2.80 m
Span 9.00 m
Shape Box + pan
Manufacturer SPXS
Bus Type Starlink
Phase Status In Orbit
Owner/State SPXS/US

Large Constellations

Loading constellations...